User: anonymous   Login
Location: Sunrise Point
(46.9200°N, 121.5900°W)
Time: 04:51:41
(UTC-07:00)
Language:

Cosmos 2058 - Orbit

View from above orbital plane
View from above orbital plane
View from above satellite
View from above satellite

Ground track
Ground track

The orbit data is extracted from the following two-line orbital elements,

1 20465U 90010A   16273.14029287  .00000610  00000-0  50103-4 0  9999
2 20465  82.4894 138.8198 0017209  93.2466 267.0725 14.97304893446271
Epoch (UTC): 29 September 2016 03:22:01
Eccentricity: 0.0017209
inclination: 82.4894°
perigee height: 563 km
apogee height: 587 km
right ascension of ascending node: 138.8198°
argument of perigee: 93.2466°
revolutions per day: 14.97304893
mean anomaly at epoch: 267.0725°
orbit number at epoch: 44627

The dashed part of the orbit path shows where the satellite is in the earth's shadow,  

DLR